Ellensburg, WA

5:46 AM PST on November 23, 2017 (GMT -0800)
Bowers

Weather History for KELN - March, 2013

Change the Weather History Date:

Friday, March 22, 2013

  Actual Average (KYKM) Record (KYKM)
Temperature  
Mean Temperature 36 °F -  
Max Temperature 45 °F 59 °F 75 °F (1960)
Min Temperature 28 °F 32 °F 17 °F (1994)
Degree Days  
Heating Degree Days 28    
Moisture  
Dew Point 21 °F    
Average Humidity 57    
Maximum Humidity 72    
Minimum Humidity 38    
Precipitation  
Precipitation 0.00 in - - ()
Sea Level Pressure  
Sea Level Pressure 30.21 in    
Wind  
Wind Speed 13 mph (NW)    
Max Wind Speed 24 mph    
Max Gust Speed 33 mph    
Visibility 10 miles    
Events      
Averages and records for this station are not official NWS values.
T = Trace of Precipitation, MM = Missing Value Source: NWS Daily Summary

Daily Weather History Graph

Daily Weather History Graph

Search for Another Location

Airport or City:

Trip Planner

Search our weather history database for the weather conditions in past years. The results will help you decide how hot, cold, wet, or windy it might be!

Date:

Astronomy

Mar. 22, 2013 Rise Set
Actual Time 7:00 AM PDT 7:18 PM PDT
Civil Twilight 6:29 AM PDT 7:48 PM PDT
Nautical Twilight 5:54 AM PDT 8:24 PM PDT
Astronomical Twilight 5:17 AM PDT 9:01 PM PDT
Moon 2:35 PM PDT (3/22) 4:20 AM PDT (3/22)
Length of Visible Light 13h 18m
Length of Day
12h 17m
Waxing Gibbous, 78% of the Moon is Illuminated
Mar 22
Waxing Gibbous
Mar 27
Full
Apr 2
Last Quarter
Apr 10
New
Apr 18
First Quarter

Hourly Weather History & Observations

Time (PDT) Temp. Windchill Dew Point Humidity Pressure Visibility Wind Dir Wind Speed Gust Speed Precip Events Conditions
12:53 AM 30.9 °F 22.2 °F 21.0 °F 67% 30.11 in 10.0 mi West 10.4 mph - N/A   Clear
1:53 AM 30.0 °F 25.2 °F 21.0 °F 69% 30.11 in 10.0 mi Variable 4.6 mph - N/A   Clear
2:53 AM 30.9 °F 22.2 °F 21.9 °F 69% 30.13 in 10.0 mi NNW 10.4 mph - N/A   Clear
4:53 AM 28.9 °F 20.4 °F 21.0 °F 72% 30.14 in 10.0 mi WNW 9.2 mph - N/A   Scattered Clouds
5:53 AM 30.0 °F 19.5 °F 21.0 °F 69% 30.14 in 10.0 mi NW 13.8 mph - N/A   Mostly Cloudy
6:53 AM 30.9 °F 21.7 °F 19.9 °F 64% 30.17 in 10.0 mi NW 11.5 mph - N/A   Mostly Cloudy
7:53 AM 28.9 °F 19.2 °F 19.9 °F 69% 30.18 in 10.0 mi WNW 11.5 mph - N/A   Mostly Cloudy
8:53 AM 33.1 °F 23.4 °F 23.0 °F 66% 30.19 in 10.0 mi NW 13.8 mph - N/A   Clear
9:53 AM 34.0 °F 25.0 °F 23.0 °F 64% 30.20 in 10.0 mi NW 12.7 mph - N/A   Overcast
10:53 AM 37.9 °F 28.2 °F 24.1 °F 57% 30.21 in 10.0 mi NW 18.4 mph - N/A   Mostly Cloudy
11:53 AM 39.9 °F 30.5 °F 24.1 °F 53% 30.22 in 10.0 mi NW 19.6 mph 26.5 mph N/A   Overcast
12:53 PM 41.0 °F 31.9 °F 23.0 °F 49% 30.21 in 10.0 mi WNW 19.6 mph - N/A   Overcast
1:53 PM 44.1 °F 35.4 °F 21.0 °F 40% 30.20 in 10.0 mi WNW 21.9 mph 25.3 mph N/A   Clear
2:53 PM 45.0 °F 36.2 °F 23.0 °F 42% 30.20 in 10.0 mi WNW 24.2 mph - N/A   Clear
3:53 PM 44.1 °F 35.0 °F 21.0 °F 40% 30.17 in 10.0 mi NW 24.2 mph 33.4 mph N/A   Clear
4:53 PM 43.0 °F 34.2 °F 19.0 °F 38% 30.22 in 10.0 mi NW 20.7 mph 29.9 mph N/A   Clear
5:53 PM 42.1 °F 33.3 °F 19.0 °F 40% 30.24 in 10.0 mi WNW 19.6 mph 28.8 mph N/A   Clear
6:53 PM 37.9 °F 29.6 °F 19.0 °F 47% 30.25 in 10.0 mi WNW 13.8 mph - N/A   Clear
7:53 PM 34.0 °F 24.6 °F 19.9 °F 56% 30.27 in 10.0 mi NW 13.8 mph - N/A   Clear
8:53 PM 33.1 °F 24.9 °F 19.9 °F 59% 30.28 in 10.0 mi NNW 10.4 mph - N/A   Clear
9:53 PM 30.9 °F 21.2 °F 19.9 °F 64% 30.31 in 10.0 mi NW 12.7 mph - N/A   Clear
10:53 PM 32.0 °F 23.0 °F 19.9 °F 61% 30.31 in 10.0 mi NW 11.5 mph - N/A   Clear
11:53 PM 30.0 °F 21.7 °F 19.0 °F 64% 30.32 in 10.0 mi NNW 9.2 mph - N/A   Clear